GPS BIIF-3 (38833 NORAD) Tracking and Keplerian Element Data

This shows tracking and keplerian element data for the satellite.

Feedback or suggestion? Click here.




ElementValue
Catalog38833
NameGPS BIIF-3
Epoch Orbit4467
Epoch Day315.22827218
Epoch Year2018
RAAN257.4319
Inclination53.872
Eccentricity0.0074961
Argument of Perigee29.8161
Mean Anonmoly330.6075
Mean Motion2.0056963
Decay Rate-2E-07
L11 38833U 12053A 18315.22827218 -.00000020 00000-0 00000+0 0 9998
L22 38833 53.8720 257.4319 0074961 29.8161 330.6075 2.00569630 44673

Live tracking and technical data element details for GPS BIIF-3 (NORAD 38833). GPS BIIF-3 can be tracked NOW for your location showing map with azimuth and elevation plus other details from your city location.

Track the satellite on the map from your city or location and see movement details for azimuth, elevation, latitude, longitude, range, height, and movement on the map or in text.







IsCatalogInMostPopularTable: catalog: 38833, numindb: 77
Update: records affected: 1



GetName: 38833 GPS BIIF-3

Hit Count: updated at: Mon, 12 Nov 2018 21:53:08 GMT